CAPE
0 0 0 0 0 0 0 0 0 0 0 0 0 0 0 0 0 6 999 1640 1479 1577 1405 1842 2019 2150 1593 1387 1166 1283 1538 1620 1482 1293 1191 1184 1314 1514 1496 1336 1321 1148 978 849 662 479 212 9 0
0 0 0 0 0 0 0 0 0 0 0 0 0 0 0 0 1090 447 1764 1640 1280 1337 1444 1804 2012 2130 1971 1662 1527 1455 1512 1423 1452 1440 1424 1466 1453 1423 1314 1208 1150 1034 871 799 568 346 19 0 0
0 0 0 0 0 0 0 0 0 0 0 0 0 0 0 56 1380 948 1856 1784 1472 1253 1416 1786 2025 2168 2157 1928 1776 1633 1507 1255 1201 1254 1349 1407 1412 1323 1326 1188 1113 914 870 777 522 43 0 0 392
0 0 0 0 0 0 0 0 0 0 0 0 0 0 861 1791 855 1238 1967 1887 1618 1370 1454 1792 2046 2296 2331 2140 2000 1863 1483 1281 1111 1187 1361 1494 1479 1370 1304 1181 1061 915 818 738 240 0 0 30 738
0 0 0 0 0 0 0 0 0 0 0 0 0 0 121 2040 1328 1083 1625 1707 1476 1475 1490 1770 2038 2208 2387 2386 2234 2111 1668 1360 1247 1383 1651 1769 1567 1485 1416 1280 1099 1112 986 500 0 0 0 13 560
0 0 0 0 0 0 0 0 0 0 0 0 0 0 307 1813 2064 1616 1778 1550 1305 1381 1358 1664 2063 2207 2348 2527 2469 2314 1908 1532 1406 1500 1674 1677 1519 1638 1370 1261 1084 926 669 74 0 0 0 0 296
0 0 0 0 0 0 0 0 0 0 0 0 0 0 505 1676 1966 1968 1921 1689 1495 1308 1233 1439 1949 2200 2389 2482 2596 2373 2080 1673 1555 1621 1665 1602 1454 1642 1405 1222 1037 710 202 0 0 0 0 87 217
0 0 0 0 0 0 0 0 0 0 0 0 0 0 0 833 1938 1752 1821 1877 1781 1519 1227 1251 1622 2099 2378 2523 2460 2357 2148 1815 1686 1660 1651 1520 1466 1569 1370 1077 879 579 30 0 0 0 0 181 287
0 0 0 0 0 0 0 0 0 0 0 0 0 0 1 528 1814 1709 1645 1729 1798 1723 1330 1077 1354 1794 2155 2463 2424 2342 2249 1935 1845 1767 1639 1428 1356 1218 1086 826 702 456 0 0 0 0 0 118 148
0 0 0 0 0 0 0 0 0 0 0 0 0 0 107 767 1654 1757 1682 1608 1746 1805 1613 1270 1178 1570 1997 2194 2303 2419 2305 2075 1987 1917 1632 1314 1012 875 606 645 546 276 0 0 0 0 12 1 3
0 0 0 0 0 0 0 0 0 0 0 0 0 0 13 488 1255 1585 1611 1613 1437 1719 1808 1689 1400 1394 1767 2040 2158 2312 2251 2114 2054 1875 1445 931 650 543 499 338 240 20 0 0 0 0 0 0 0
0 0 0 0 0 0 0 0 0 0 0 0 0 0 0 178 789 1022 1393 1605 1705 1871 1924 1901 1690 1484 1477 1632 1792 1985 2216 2174 1990 1656 1103 795 563 394 276 226 62 1 0 0 0 0 0 0 0
0 0 0 0 0 0 0 0 0 0 0 0 0 0 0 6 441 1118 1404 1558 1665 1857 1924 1883 1720 1614 1441 1466 1576 1507 1683 1883 1650 1199 865 774 556 360 152 82 5 0 0 0 0 0 0 0 0
0 0 0 0 0 0 0 0 0 0 0 0 0 0 0 0 0 184 834 1287 1505 1668 1863 1987 1867 1681 1470 1477 1373 1443 1522 1534 1341 991 912 644 366 206 114 25 0 0 0 0 0 0 0 0 0
0 0 0 0 0 0 0 0 0 0 0 0 0 0 0 0 0 0 1 339 1034 1414 1664 1917 2037 1936 1814 1747 1469 1439 1427 1331 1157 802 603 377 193 90 48 1 0 0 0 0 0 0 0 0 0
0 0 0 0 0 0 0 0 0 0 0 0 0 0 0 0 0 0 0 497 1066 1503 1658 1843 2008 2010 2027 1880 1741 1563 1409 1246 1065 806 454 222 110 43 39 10 3 0 0 0 0 0 0 1 0
0 0 0 0 0 0 0 0 0 0 0 0 0 0 0 0 0 0 0 0 0 814 1596 1737 1863 1876 2035 1987 1892 1700 1551 1392 1185 981 509 25 1 4 2 3 3 1 0 0 0 0 0 0 3
0 0 0 0 0 0 0 0 0 0 0 0 0 0 0 0 0 0 0 0 0 0 374 1455 1560 1740 1804 1928 1886 1448 1346 1213 1138 993 642 339 129 42 1 2 3 3 0 0 0 0 2 0 2
0 0 0 0 0 0 0 0 0 0 0 0 0 0 0 0 0 0 0 0 75 96 57 985 1432 1468 1635 1574 1705 1226 1082 875 839 844 706 412 148 2 3 0 0 2 0 0 0 0 0 2 0
0 0 0 0 0 0 0 0 0 0 0 0 0 0 0 0 0 0 0 0 0 4 262 587 750 1354 1609 1446 1149 563 677 491 532 328 387 294 107 23 2 0 0 1 1 4 0 0 1 1 0
0 0 0 0 0 0 0 0 0 0 0 0 0 0 0 0 0 0 0 0 0 0 0 0 61 344 370 116 32 0 0 1 90 125 85 120 33 1 2 2 2 2 1 2 0 0 0 0 0
0 0 0 0 0 0 0 0 0 0 0 0 0 0 0 0 0 0 0 0 0 0 0 0 0 0 0 0 3 0 22 80 13 52 31 26 6 1 1 2 2 2 0 4 0 0 0 0 0
0 0 0 0 0 0 0 0 0 0 0 0 0 0 0 0 0 0 0 0 0 0 0 0 0 0 0 1 0 0 0 10 0 0 0 1 1 0 1 2 1 2 0 0 1 0 0 0 0
0 0 0 0 0 0 0 0 0 0 0 0 0 0 0 0 0 0 0 0 0 0 0 0 0 0 0 0 0 0 0 0 0 0 0 0 0 1 1 0 2 1 0 0 0 0 0 0 0
0 0 0 0 0 0 0 0 0 0 0 0 0 0 0 0 0 0 0 0 0 0 0 0 0 0 0 0 0 0 0 2 0 0 0 1 0 1 0 0 0 1 2 1 0 0 0 0 0
0 0 0 0 0 0 0 0 0 0 0 0 0 0 0 0 0 0 0 0 0 0 0 0 0 0 0 0 0 0 0 0 0 1 11 6 0 1 0 8 1 1 1 2 1 1 0 0 0
0 0 0 0 0 0 0 0 0 0 0 0 0 0 0 0 0 0 0 0 0 0 0 0 0 0 0 0 0 0 0 0 0 0 2 26 19 6 1 3 3 2 2 1 2 1 0 0 0
0 0 0 0 0 0 0 0 0 0 0 0 0 0 0 0 0 0 0 0 0 0 0 0 0 0 0 0 0 0 0 0 0 1 1 3 14 6 1 3 1 1 1 2 2 1 1 1 1
0 0 0 0 0 0 0 0 0 0 0 0 0 0 0 0 0 0 0 0 0 0 0 0 0 0 0 0 0 0 0 0 0 0 0 6 32 12 17 3 2 2 2 2 2 1 1 1 1
0 0 0 0 0 0 0 0 0 0 0 0 0 0 0 0 0 0 0 0 0 0 0 0 0 0 0 0 0 0 0 0 0 0 1 1 9 25 28 12 13 16 5 1 1 2 0 1 1
CIN
-0 -0 -0 -0 -0 -0 -0 -0 -0 -0 -0 -0 -0 -0 -0 -26 -0 -29 -508 -414 -465 -432 -501 -383 -319 -284 -354 -366 -395 -368 -303 -263 -259 -269 -261 -254 -224 -178 -172 -179 -174 -202 -219 -227 -253 -276 -377 -537 -0
-0 -0 -0 -0 -0 -0 -0 -0 -0 -0 -0 -0 -0 -0 -0 -0 -199 -343 -294 -468 -498 -498 -504 -422 -352 -290 -279 -304 -301 -309 -296 -294 -263 -237 -236 -188 -176 -170 -187 -202 -187 -200 -230 -231 -256 -299 -436 -0 -0
-0 -0 -0 -0 -0 -0 -0 -0 -0 -0 -0 -0 -0 -0 -0 -133 -189 -286 -359 -464 -526 -532 -512 -424 -350 -297 -271 -264 -270 -251 -246 -295 -308 -271 -229 -201 -173 -168 -152 -194 -204 -223 -212 -215 -262 -445 -0 -0 -314
-0 -0 -0 -0 -0 -0 -0 -0 -0 -0 -0 -0 -0 -0 -148 -187 -156 -249 -409 -460 -475 -502 -495 -415 -345 -259 -233 -229 -228 -209 -246 -241 -260 -238 -195 -177 -160 -174 -178 -185 -219 -263 -286 -250 -383 -0 -0 -159 -178
-0 -0 -0 -0 -0 -0 -0 -0 -0 -0 -0 -0 -0 -0 -155 -215 -364 -414 -407 -485 -462 -503 -504 -421 -344 -290 -237 -208 -205 -183 -214 -237 -241 -188 -142 -124 -137 -150 -159 -166 -170 -148 -195 -280 -0 -0 -0 -140 -241
-0 -0 -0 -0 -0 -0 -0 -0 -0 -0 -0 -0 -0 -0 -136 -324 -269 -352 -453 -480 -516 -493 -511 -429 -332 -282 -227 -182 -172 -165 -190 -206 -196 -165 -133 -119 -128 -121 -147 -152 -178 -188 -170 -322 -0 -0 -0 -0 -336
-0 -0 -0 -0 -0 -0 -0 -0 -0 -0 -0 -0 -0 -0 -199 -194 -281 -349 -403 -443 -462 -484 -490 -455 -342 -274 -221 -181 -134 -129 -143 -182 -169 -135 -123 -117 -124 -115 -146 -150 -155 -200 -295 -0 -0 -0 -0 -437 -358
-0 -0 -0 -0 -0 -0 -0 -0 -0 -0 -0 -0 -0 -0 -0 -144 -285 -371 -395 -394 -393 -426 -479 -479 -402 -288 -217 -163 -145 -142 -132 -143 -149 -134 -108 -108 -105 -97 -124 -174 -174 -207 -325 -0 -0 -0 -0 -332 -306
-0 -0 -0 -0 -0 -0 -0 -0 -0 -0 -0 -0 -0 -0 -301 -274 -282 -315 -350 -376 -372 -372 -437 -492 -392 -300 -234 -159 -127 -99 -98 -117 -94 -89 -87 -99 -95 -98 -124 -177 -211 -230 -0 -0 -0 -0 -14 -263 -275
-0 -0 -0 -0 -0 -0 -0 -0 -0 -0 -0 -0 -0 -0 -306 -205 -206 -204 -229 -274 -336 -339 -358 -403 -401 -322 -232 -185 -146 -85 -65 -60 -44 -38 -58 -96 -144 -149 -188 -172 -184 -251 -0 -0 -0 -0 -296 -143 -149
-0 -0 -0 -0 -0 -0 -0 -0 -0 -0 -0 -0 -0 -0 -195 -243 -199 -192 -191 -225 -223 -334 -321 -337 -368 -358 -273 -209 -171 -120 -86 -61 -39 -29 -55 -139 -165 -198 -235 -216 -238 -355 -0 -0 -0 -0 -0 -0 -0
-0 -0 -0 -0 -0 -0 -0 -0 -0 -0 -0 -0 -0 -0 -0 -299 -192 -194 -192 -206 -238 -288 -313 -337 -344 -341 -312 -262 -220 -150 -83 -59 -53 -86 -153 -161 -169 -216 -258 -308 -340 -82 -0 -0 -0 -0 -0 -0 -0
-0 -0 -0 -0 -0 -0 -0 -0 -0 -0 -0 -0 -0 -0 -0 -246 -308 -279 -240 -228 -235 -242 -283 -302 -289 -299 -297 -243 -212 -189 -138 -94 -98 -138 -167 -157 -196 -255 -330 -383 -412 -52 -0 -0 -0 -0 -0 -0 -0
-0 -0 -0 -0 -0 -0 -0 -0 -0 -0 -0 -0 -0 -0 -0 -0 -0 -314 -233 -210 -270 -269 -280 -280 -264 -248 -226 -222 -229 -213 -154 -107 -127 -162 -161 -188 -233 -280 -315 -340 -0 -0 -0 -0 -0 -0 -0 -0 -0
-0 -0 -0 -0 -0 -0 -0 -0 -0 -0 -0 -0 -0 -0 -0 -0 -0 -0 -21 -268 -223 -274 -304 -277 -255 -211 -195 -195 -217 -186 -177 -158 -142 -157 -164 -196 -253 -284 -331 -0 -0 -0 -0 -0 -0 -0 -0 -0 -0
-0 -0 -0 -0 -0 -0 -0 -0 -0 -0 -0 -0 -0 -0 -0 -0 -0 -0 -0 -474 -305 -292 -301 -296 -257 -220 -188 -187 -174 -156 -131 -112 -123 -119 -124 -158 -214 -280 -298 -288 -0 -0 -0 -0 -0 -0 -0 -0 -0
-0 -0 -0 -0 -0 -0 -0 -0 -0 -0 -0 -0 -0 -0 -0 -0 -0 -0 -0 -0 -0 -387 -247 -268 -268 -254 -209 -154 -137 -119 -109 -110 -104 -88 -136 -179 -0 -144 -0 -0 -0 -0 -0 -0 -0 -0 -0 -0 -0
-0 -0 -0 -0 -0 -0 -0 -0 -0 -0 -0 -0 -0 -0 -0 -0 -0 -0 -0 -0 -0 -0 -269 -241 -234 -231 -208 -116 -72 -92 -73 -75 -90 -110 -172 -145 -168 -222 -0 -0 -0 -0 -0 -0 -0 -0 -0 -0 -0
-0 -0 -0 -0 -0 -0 -0 -0 -0 -0 -0 -0 -0 -0 -0 -0 -0 -0 -0 -0 -480 -485 -498 -212 -161 -158 -117 -108 -114 -104 -119 -127 -114 -116 -159 -156 -210 -0 -0 -0 -0 -0 -0 -0 -0 -0 -0 -0 -0
-0 -0 -0 -0 -0 -0 -0 -0 -0 -0 -0 -0 -0 -0 -0 -0 -0 -0 -0 -0 -0 -148 -277 -214 -161 -88 -48 -61 -104 -157 -176 -170 -162 -201 -192 -190 -222 -241 -0 -0 -0 -0 -0 -1 -0 -0 -0 -0 -0
-0 -0 -0 -0 -0 -0 -0 -0 -0 -0 -0 -0 -0 -0 -0 -0 -0 -0 -0 -0 -0 -0 -0 -0 -112 -166 -174 -255 -255 -0 -0 -132 -269 -208 -189 -179 -191 -0 -0 -0 -0 -0 -0 -0 -0 -0 -0 -0 -0
-0 -0 -0 -0 -0 -0 -0 -0 -0 -0 -0 -0 -0 -0 -0 -0 -0 -0 -0 -0 -0 -0 -0 -0 -0 -0 -0 -15 -157 -0 -27 -123 -171 -225 -257 -222 -181 -3 -0 -0 -0 -0 -0 -0 -0 -0 -0 -0 -0
-0 -0 -0 -0 -0 -0 -0 -0 -0 -0 -0 -0 -0 -0 -0 -0 -0 -0 -0 -0 -0 -0 -0 -0 -0 -0 -0 -4 -0 -0 -0 -146 -0 -0 -0 -0 -0 -0 -0 -0 -0 -0 -0 -0 -0 -0 -0 -0 -0
-0 -0 -0 -0 -0 -0 -0 -0 -0 -0 -0 -0 -0 -0 -0 -0 -0 -0 -0 -0 -0 -0 -0 -0 -0 -0 -0 -0 -0 -0 -0 -0 -0 -0 -0 -0 -0 -0 -0 -0 -0 -0 -0 -0 -0 -0 -0 -0 -0
-0 -0 -0 -0 -0 -0 -0 -0 -0 -0 -0 -0 -0 -0 -0 -0 -0 -0 -0 -0 -0 -0 -0 -0 -0 -0 -0 -0 -0 -0 -0 -16 -0 -0 -0 -13 -0 -0 -0 -0 -0 -0 -0 -0 -0 -0 -0 -0 -0
-0 -0 -0 -0 -0 -0 -0 -0 -0 -0 -0 -0 -0 -0 -0 -0 -0 -0 -0 -0 -0 -0 -0 -0 -0 -0 -0 -0 -0 -0 -0 -0 -0 -45 -85 -93 -7 -79 -0 -79 -0 -0 -0 -0 -0 -0 -0 -0 -0
-0 -0 -0 -0 -0 -0 -0 -0 -0 -0 -0 -0 -0 -0 -0 -0 -0 -0 -0 -0 -0 -0 -0 -0 -0 -0 -0 -0 -0 -0 -0 -0 -0 -0 -67 -87 -92 -101 -0 -137 -97 -0 -0 -0 -0 -0 -0 -0 -0
-0 -0 -0 -0 -0 -0 -0 -0 -0 -0 -0 -0 -0 -0 -0 -0 -0 -0 -0 -0 -0 -0 -0 -0 -0 -0 -0 -0 -0 -0 -0 -0 -0 -61 -188 -31 -73 -99 -0 -37 -0 -0 -0 -0 -0 -0 -0 -0 -0
-0 -0 -0 -0 -0 -0 -0 -0 -0 -0 -0 -0 -0 -0 -0 -0 -0 -0 -0 -0 -0 -0 -0 -0 -0 -0 -0 -0 -0 -0 -0 -0 -0 -0 -0 -68 -55 -81 -67 -45 -20 -0 -0 -0 -0 -0 -0 -0 -0
-0 -0 -0 -0 -0 -0 -0 -0 -0 -0 -0 -0 -0 -0 -0 -0 -0 -0 -0 -0 -0 -0 -0 -0 -0 -0 -0 -0 -0 -0 -0 -0 -0 -0 -4 -3 -60 -69 -63 -80 -71 -41 -52 -0 -0 -0 -0 -0 -0
Wind_Speed
8 10 12 15 14 15 20 18 18 19 18 19 11 19 16 11 9 9 13 8 8 9 11 11 12 10 11 11 12 12 12 12 12 12 12 12 13 12 12 12 11 10 10 11 12 12 12 13 14
6 11 15 12 15 7 6 18 14 15 20 21 16 13 12 8 9 12 10 7 9 11 12 13 13 13 13 10 8 9 11 12 11 11 11 11 11 11 10 9 8 8 8 9 9 10 11 11 12
7 15 14 13 12 9 16 15 17 22 24 23 22 18 8 8 10 10 11 10 11 12 13 14 14 14 14 13 12 10 9 10 11 11 10 10 9 7 7 7 7 6 6 7 7 8 9 10 11
9 12 13 13 26 22 12 21 22 26 26 22 17 10 11 19 11 9 10 11 13 12 12 13 14 13 12 12 12 12 12 11 10 10 9 8 7 5 5 5 5 5 5 4 5 6 8 9 10
13 14 13 14 20 23 24 25 22 24 24 25 12 15 20 20 14 9 8 9 10 9 9 11 12 11 11 11 11 11 11 11 10 10 8 6 6 5 3 2 2 2 3 4 4 5 6 8 9
13 14 15 15 19 19 24 23 23 19 22 25 14 14 17 21 12 7 7 7 6 7 7 7 9 9 8 9 10 10 10 10 10 9 9 8 7 5 3 2 0 1 2 3 3 4 5 6 9
12 14 16 17 23 26 18 22 22 24 25 21 17 14 20 14 8 5 5 5 4 4 4 4 5 6 6 7 8 8 9 10 10 9 9 9 8 7 6 4 2 1 2 3 3 3 4 6 8
11 15 18 17 19 22 20 27 25 25 31 23 21 25 24 13 6 6 5 3 2 1 2 3 4 4 5 6 8 9 9 10 11 11 10 10 9 8 8 7 4 2 3 2 3 1 3 7 8
10 17 22 21 19 21 27 31 31 29 27 30 25 26 27 21 8 6 6 4 2 1 1 2 3 4 5 5 6 7 9 10 11 11 11 11 10 9 9 8 7 5 5 4 2 1 1 6 8
12 16 20 20 22 28 35 33 40 37 40 33 29 22 25 15 6 6 6 6 6 5 5 4 4 5 5 5 7 8 9 11 11 12 12 12 12 12 11 10 8 6 5 5 4 2 3 2 3
17 14 21 30 34 35 34 41 31 34 34 29 31 31 19 16 9 7 8 8 8 8 8 7 6 7 7 8 9 10 12 12 13 14 14 14 14 13 13 13 11 9 7 7 5 5 3 3 2
15 28 27 36 37 34 35 29 30 26 16 31 33 30 21 17 12 11 12 12 10 10 10 9 9 9 9 9 10 11 13 14 16 17 17 17 17 16 16 15 14 12 11 9 7 7 6 5 4
17 29 35 34 29 35 36 36 36 29 40 39 30 24 17 14 12 12 11 11 10 11 11 11 10 11 11 11 11 12 14 15 17 19 19 19 20 19 18 18 17 15 13 12 10 9 8 7 5
23 32 36 33 35 33 36 42 29 38 37 33 35 36 21 15 14 14 13 15 14 15 13 12 13 12 11 12 13 14 14 15 17 21 22 22 22 22 21 20 19 17 16 15 13 11 10 9 7
23 35 38 35 33 31 24 32 29 34 32 34 36 36 35 29 24 17 16 18 18 17 15 14 15 14 14 16 16 15 15 16 19 21 22 24 25 25 25 24 23 20 18 17 15 13 11 10 9
31 31 36 27 28 24 21 30 34 34 38 40 41 38 36 35 36 35 34 30 23 19 17 16 16 16 17 16 15 15 16 17 19 23 25 29 29 27 27 27 26 24 19 20 19 16 15 13 11
23 7 18 34 20 24 26 37 35 38 38 39 39 36 39 36 34 35 36 34 30 20 17 17 16 17 17 16 15 15 15 15 15 16 19 21 26 19 23 33 31 24 22 20 20 19 17 16 14
21 20 20 29 28 36 45 34 36 36 39 41 37 35 32 30 33 35 35 34 31 22 16 17 17 17 17 16 16 18 15 15 16 17 18 21 21 21 21 32 32 25 26 23 21 22 20 17 15
20 24 22 33 43 37 30 27 37 41 34 31 29 27 28 29 29 32 34 33 30 27 24 22 20 19 17 16 17 17 17 16 17 17 19 22 25 22 21 22 23 10 26 26 23 22 20 20 16
25 28 27 36 34 28 36 41 42 32 28 25 25 24 23 25 29 31 32 32 30 27 24 22 21 19 18 19 20 23 21 19 19 22 22 24 25 25 26 25 31 26 22 27 28 24 23 20 19
29 30 33 36 37 34 38 41 30 28 23 22 24 23 23 25 26 29 30 31 28 26 24 23 22 22 23 23 22 26 24 26 22 22 23 25 23 24 23 23 26 27 26 30 25 28 25 23 22
35 31 32 35 39 44 30 51 35 26 27 26 25 27 27 28 28 29 30 30 29 26 24 22 22 22 22 23 26 28 30 32 28 26 25 24 21 23 23 22 22 25 27 27 28 25 27 25 25
38 34 35 39 37 40 35 41 40 25 29 26 26 28 28 27 29 30 30 29 28 26 24 23 21 22 21 22 22 26 30 35 33 30 28 26 24 22 21 22 21 16 21 30 24 27 28 27 26
33 37 36 35 35 46 38 33 43 29 27 27 26 27 28 30 29 28 28 28 29 28 27 25 23 23 23 26 27 29 30 32 32 32 30 27 26 25 24 20 22 21 18 19 29 35 28 30 29
28 33 41 41 36 42 35 38 41 26 23 24 27 28 29 29 30 31 32 32 31 30 30 29 29 32 34 33 34 33 36 39 37 34 32 30 26 25 21 24 24 22 20 20 22 28 39 34 31
27 25 29 44 46 52 40 46 41 23 23 24 26 27 28 30 32 32 34 34 34 33 33 37 39 41 40 41 42 39 40 40 42 41 35 32 30 28 23 21 21 20 23 22 22 24 31 41 33
29 31 28 38 42 49 44 41 29 24 28 28 30 30 32 33 35 35 37 37 39 41 40 40 41 41 42 44 44 45 45 41 42 45 42 40 37 33 31 28 27 23 21 23 25 27 27 30 32
27 25 36 34 44 48 45 43 39 32 36 34 36 38 37 36 37 38 40 41 43 43 41 42 40 38 39 42 43 45 47 46 46 45 45 43 41 36 35 34 32 30 28 24 27 31 31 29 30
31 33 33 37 36 47 51 45 25 30 32 36 39 40 41 41 43 44 46 46 45 47 46 44 40 36 37 39 41 41 42 44 43 42 44 40 39 38 39 38 36 34 34 33 30 31 32 32 28
31 34 34 38 41 37 42 46 24 34 39 42 44 42 42 42 45 46 47 46 45 45 44 39 34 34 33 34 35 37 37 37 38 37 39 40 41 38 39 39 37 36 36 35 37 35 33 33 32
Wind_Direction
353 340 317 280 288 288 227 174 179 202 239 235 350 210 179 163 162 184 5 84 53 97 122 126 127 127 127 128 128 127 124 121 121 121 119 118 114 111 106 99 92 86 81 76 70 64 59 55 54
4 308 279 310 275 33 236 145 29 209 228 257 291 282 161 174 59 21 33 70 78 97 118 129 133 135 132 130 131 131 130 129 128 128 126 125 122 117 110 101 90 81 78 73 65 58 56 54 53
3 277 295 289 287 82 131 127 277 264 268 245 249 219 117 73 62 63 30 97 94 107 121 130 137 139 140 140 139 140 142 141 141 141 138 136 131 120 107 97 90 81 72 68 55 43 38 44 54
320 303 303 295 232 210 149 239 261 266 263 282 313 164 360 314 47 63 71 93 107 115 122 130 138 140 142 145 146 149 151 152 153 153 153 149 145 136 125 108 99 100 94 70 43 45 51 50 51
295 296 294 292 273 264 274 270 276 256 279 285 325 341 323 316 350 40 80 96 106 108 119 132 141 144 148 151 154 157 160 162 163 162 160 164 162 159 156 127 67 60 81 67 64 66 71 78 66
300 300 294 288 282 290 280 280 297 322 318 297 332 339 332 316 352 34 76 90 88 99 107 126 146 151 153 158 163 168 173 173 175 176 176 171 171 184 199 228 283 23 8 23 53 74 78 79 93
306 301 291 295 284 282 299 301 308 305 307 332 346 345 329 344 5 42 58 68 75 83 102 125 148 166 171 176 176 180 183 183 186 190 191 189 187 186 196 209 238 281 309 334 12 78 83 94 104
318 306 294 297 293 289 300 295 310 318 290 329 341 315 328 347 356 6 19 32 44 87 135 162 172 179 186 191 190 195 197 198 195 196 198 203 204 198 194 189 210 238 278 296 316 12 95 111 110
330 300 288 290 292 296 297 295 295 320 314 313 324 318 315 330 340 344 345 339 336 305 213 190 195 197 203 215 219 215 215 212 211 209 208 211 222 224 215 214 202 220 260 271 272 309 27 118 113
307 300 295 294 299 294 290 295 288 302 290 308 317 326 322 335 325 299 300 294 299 276 272 262 249 237 234 247 247 243 243 236 232 230 228 231 230 234 237 232 223 227 233 250 253 243 146 140 117
304 299 300 285 284 290 297 284 305 303 301 315 311 315 322 319 298 270 267 266 247 283 278 257 249 244 243 261 262 258 253 245 242 241 243 247 244 240 237 245 241 242 235 234 224 236 229 196 200
304 288 295 278 279 295 293 305 302 306 296 310 309 311 314 310 293 266 264 263 262 252 245 240 235 241 237 252 255 256 254 252 247 239 239 243 246 245 248 241 242 239 238 228 221 218 224 232 228
306 295 271 284 302 289 292 294 298 274 299 304 313 312 303 297 281 271 260 256 265 251 250 248 249 246 248 248 257 261 254 250 253 252 245 240 244 240 239 246 247 242 232 229 223 220 220 221 221
307 284 278 294 294 300 298 287 306 293 305 310 312 308 309 295 286 279 277 278 270 255 251 247 242 250 250 246 258 263 260 262 258 256 249 244 245 246 243 242 245 243 240 235 228 224 224 229 223
310 281 281 293 300 305 313 301 304 301 309 309 309 313 309 304 305 292 278 280 272 267 258 247 249 250 252 258 265 265 258 258 263 262 251 245 243 243 240 241 244 239 237 233 229 226 226 224 232
296 295 281 308 314 314 322 308 300 309 308 305 309 310 311 307 304 305 305 300 293 283 270 254 252 247 249 252 261 261 265 269 271 270 265 252 248 243 248 249 240 244 231 229 229 222 222 225 224
312 287 298 289 320 315 315 305 307 309 312 310 310 311 308 310 313 314 312 311 304 289 273 261 247 247 246 252 261 263 258 260 262 266 269 265 252 248 248 248 246 235 232 231 229 226 219 221 225
316 322 320 304 307 305 284 309 308 314 313 311 312 314 316 318 320 320 320 320 317 305 278 266 259 258 255 260 270 273 265 262 266 269 271 270 262 254 266 256 253 237 223 228 224 227 230 222 218
320 315 314 308 280 307 309 311 313 315 320 322 323 325 324 325 328 330 328 325 324 323 314 298 283 278 262 254 261 264 264 268 272 271 277 277 276 266 253 254 253 278 237 227 221 223 219 225 215
315 313 312 309 312 314 311 309 312 319 323 328 332 333 331 330 328 330 332 334 332 329 324 318 309 294 280 274 277 285 282 280 281 284 284 282 276 271 267 260 276 233 229 228 226 218 220 219 210
315 315 314 312 315 312 312 308 314 320 326 331 334 332 333 331 329 329 332 335 337 337 337 327 316 305 296 290 285 291 294 293 291 288 288 285 279 277 261 265 266 244 235 235 224 215 214 213 221
310 316 314 313 315 311 318 307 309 310 314 323 330 330 330 331 332 331 331 335 339 340 339 335 325 320 312 303 291 289 290 290 295 294 294 291 279 278 269 266 261 258 262 247 232 226 224 216 220
310 312 312 311 309 310 308 309 314 308 308 315 324 327 329 331 331 331 334 334 336 339 339 336 330 320 316 308 304 300 296 293 294 292 292 290 290 276 277 261 265 240 258 261 241 230 225 225 223
313 312 313 312 309 302 306 302 310 307 305 311 319 325 327 329 330 333 337 338 338 336 332 328 324 318 319 310 306 302 299 297 295 293 289 288 287 286 279 271 265 264 244 256 256 248 232 234 236
316 314 311 309 308 304 317 308 301 309 311 312 316 322 324 327 328 327 329 331 333 331 329 323 316 308 306 306 296 298 296 292 290 290 289 287 282 283 283 277 273 265 254 255 254 244 251 245 235
316 311 305 305 305 306 309 304 307 313 317 319 321 324 324 325 325 326 327 326 327 327 321 312 308 307 301 302 295 296 292 289 286 284 281 280 281 278 280 274 273 269 266 256 251 256 250 249 251
320 308 312 303 305 304 304 307 314 311 316 316 319 325 323 322 323 322 322 317 316 315 311 310 309 305 303 301 300 296 291 287 286 281 279 277 275 275 270 271 271 268 266 260 255 253 251 249 251
310 316 309 310 306 303 304 303 302 304 308 314 318 319 318 319 320 321 321 319 317 314 314 311 307 306 307 304 302 298 293 291 284 281 278 276 273 270 270 268 267 265 262 262 259 257 255 253 251
310 305 305 305 299 300 302 303 309 314 315 313 316 316 318 319 319 320 319 318 317 310 309 307 304 309 309 308 308 305 299 293 290 285 280 279 277 271 266 265 265 263 260 258 258 257 256 252 249
312 309 307 298 306 304 302 299 297 316 320 316 316 318 319 321 321 320 319 318 317 316 315 313 312 312 314 315 313 311 310 305 298 294 289 286 281 278 271 266 264 263 261 257 255 255 254 248 247